Location: ČR
(50.0000°N, 15.0000°E)
Time: 14:01:24
(UTC+00:00)

Explorer 7 - Pass Details

Date: 22 October 2021
Orbit: 483 x 675 km, 50.3° (Epoch: 27 November)

Event Time Altitude Azimuth Distance (km) Brightness Sun altitude
Rises 20:43:27 0° 220° (SW) 2,662 - -44.1°
Reaches altitude 10° 20:45:45 10° 210° (SSW) 1,806 - -44.3°
Maximum altitude 20:49:26 32° 147° (SSE) 977 - -44.7°
Drops below altitude 10° 20:53:21 10° 83° (E) 1,924 - -45.1°
Sets 20:55:53 0° 74° (ENE) 2,866 - -45.4°
